This is the latest recevied weather packets stored in our database for station/object WX5HOT. If no packets are shown the sender has not sent any weather packets the latest 10 day(s).
| Time | Temp. | Humidity | Pressure | Rain* | Wind** | Luminosity | Snow |
|---|---|---|---|---|---|---|---|
| 1777659546 | 15° C | 55% | 1067.9 hPa | 0 mm | - | 318 W/m² | - |
| 1777659243 | 14.44° C | 56% | 1067.8 hPa | 0 mm | - | 482 W/m² | - |
| 1777658941 | 13.89° C | 56% | 1067.9 hPa | 0 mm | - | 394 W/m² | - |
| 1777658637 | 14.44° C | 55% | 1067.9 hPa | 0 mm | - | 319 W/m² | - |
| 1777658334 | 14.44° C | 55% | 1067.8 hPa | 0 mm | - | 312 W/m² | - |
| 1777658030 | 14.44° C | 56% | 1068 hPa | 0 mm | - | 501 W/m² | - |
| 1777657727 | 13.89° C | 58% | 1068.2 hPa | 0 mm | - | 406 W/m² | - |
| 1777657425 | 13.89° C | 54% | 1068.2 hPa | 0 mm | - | 437 W/m² | - |
| 1777657123 | 13.89° C | 55% | 1068.4 hPa | 0 mm | - | 281 W/m² | - |
| 1777656820 | 13.89° C | 54% | 1068.1 hPa | 0 mm | - | 333 W/m² | - |
| 1777656515 | 13.89° C | 54% | 1068.2 hPa | 0 mm | - | 304 W/m² | - |
| 1777656210 | 13.89° C | 54% | 1068.4 hPa | 0 mm | - | 307 W/m² | - |
| 1777655906 | 13.89° C | 54% | 1068.3 hPa | 0 mm | - | 343 W/m² | - |
| 1777655604 | 13.89° C | 54% | 1068.3 hPa | 0 mm | - | 373 W/m² | - |
| 1777655300 | 13.89° C | 54% | 1068.6 hPa | 0 mm | - | 452 W/m² | - |
| 1777654997 | 13.89° C | 55% | 1068.6 hPa | 0 mm | - | 419 W/m² | - |
| 1777654694 | 13.89° C | 57% | 1069 hPa | 0 mm | - | 363 W/m² | - |
| 1777654392 | 13.89° C | 58% | 1068.6 hPa | 0 mm | - | 371 W/m² | - |
| 1777654090 | 13.33° C | 59% | 1068.8 hPa | 0 mm | - | 394 W/m² | - |
| 1777653787 | 13.33° C | 57% | 1068.7 hPa | 0 mm | - | 329 W/m² | - |
| 1777653482 | 13.33° C | 58% | 1068.6 hPa | 0 mm | - | 350 W/m² | - |
| 1777653180 | 13.33° C | 60% | 1068.6 hPa | 0 mm | - | 292 W/m² | - |
| 1777652876 | 13.33° C | 62% | 1068.7 hPa | 0 mm | - | 290 W/m² | - |
| 1777652573 | 13.33° C | 62% | 1068.4 hPa | 0 mm | - | 301 W/m² | - |
| 1777652270 | 13.89° C | 62% | 1068.5 hPa | 0 mm | - | 351 W/m² | - |
* Rain latest hour (hover to see other rain measurements)
** Current wind speed in m/s (hover to see current wind gust speed)